User: anonymous   Login
Location: Unspecified
(0.0000°N, 0.0000°E)
Time: 07:51:35
(UTC+00:00)
Language:

COSMOS 2484 - Orbit

View from above orbital plane
View from above orbital plane
View from above satellite
View from above satellite

Ground track
Ground track

The orbit data is extracted from the following two-line orbital elements,

1 39059U 13001C   17328.42845732 +.00000046 +00000-0 +26179-3 0  9995
2 39059 082.5048 005.9573 0025490 018.8506 341.3515 12.42889690220333
Epoch (UTC): 24 November 2017 10:16:58
Eccentricity: 0.0025490
inclination: 82.5048°
perigee height: 1474 km
apogee height: 1514 km
right ascension of ascending node: 5.9573°
argument of perigee: 18.8506°
revolutions per day: 12.42889690
mean anomaly at epoch: 341.3515°
orbit number at epoch: 22033

The dashed part of the orbit path shows where the satellite is in the earth's shadow,  

DLR